Wind_Speed
9 10 10 10 10 10 9 9 9 10 10 10 11 11 12 13 12 13 12 10 10 7 7 11 15 16 16 16 15 16 18 17 16 18 20 20 22 21 21 21 21 20 21 20 20 19 19 18 19 19 20 22 23 23 22 21 20 19 18 18 18 18 17 15 12 10 9 9 9 9 10 10 10 10
9 10 11 10 11 10 10 9 9 9 9 10 10 11 12 12 13 14 14 12 12 10 10 11 14 15 17 18 15 14 18 19 17 18 19 19 20 20 20 19 19 19 19 18 18 17 17 17 18 19 19 20 21 22 22 21 20 18 18 18 17 17 16 15 14 11 9 8 8 8 8 8 8 8
10 11 11 11 11 11 10 10 9 9 9 9 9 10 10 11 12 13 13 13 12 12 11 11 13 13 15 17 16 15 18 18 17 18 18 17 18 18 19 17 17 17 17 16 16 15 15 16 17 17 18 19 20 21 21 21 20 18 17 17 18 17 16 15 14 13 11 9 8 7 7 7 7 7
11 11 11 12 12 11 10 10 10 9 9 9 9 9 9 10 10 11 11 12 11 12 12 11 12 13 14 16 15 15 16 16 16 17 16 16 17 17 17 15 13 13 14 14 14 14 14 15 16 16 17 18 19 19 20 20 20 18 17 16 17 17 17 15 14 13 12 11 9 8 7 7 6 6
11 11 11 11 11 12 11 10 10 9 9 9 8 9 9 9 10 10 11 11 11 12 12 12 12 13 13 14 13 13 14 14 15 16 15 16 16 15 16 15 12 10 12 13 14 14 14 14 15 15 16 17 18 18 19 19 19 18 17 16 16 17 17 16 14 12 12 11 10 9 8 8 7 7
10 10 10 11 11 12 12 11 10 10 10 9 9 9 9 9 10 10 10 11 11 11 12 12 12 13 13 13 13 14 14 14 15 15 15 15 15 13 14 15 13 10 11 13 13 13 13 14 14 14 15 16 17 17 18 18 18 17 17 16 16 16 16 16 15 13 12 11 10 10 10 9 8 8
9 9 9 10 11 12 12 11 11 11 10 10 9 9 10 10 11 11 11 11 11 11 12 12 13 13 13 13 13 14 14 14 14 14 13 13 13 12 13 14 13 13 14 13 12 13 14 14 14 14 15 15 16 17 17 16 16 16 16 16 16 16 16 15 15 13 13 12 11 11 10 10 9 9
9 8 8 8 9 10 10 10 11 11 10 10 9 9 10 10 10 11 11 11 11 11 11 12 12 12 12 13 13 13 13 14 14 13 13 12 11 11 12 14 14 15 17 15 13 13 13 13 14 14 15 16 16 16 16 16 15 15 15 15 16 16 16 15 15 13 13 13 12 12 11 10 10 10
9 8 7 7 8 9 9 9 10 10 9 9 9 9 9 9 9 10 10 10 10 10 10 10 10 11 11 12 12 13 13 13 14 14 13 13 13 12 13 14 14 15 17 18 17 16 14 13 13 13 15 17 17 16 15 15 14 14 14 14 15 16 16 16 15 14 14 13 13 12 12 11 11 11
9 8 7 7 8 8 8 9 9 9 8 8 8 8 8 8 9 9 10 10 10 9 9 9 10 10 11 11 12 13 13 14 14 14 14 14 16 16 15 15 15 15 16 18 19 20 18 15 14 14 15 16 17 17 16 14 13 14 14 14 15 16 16 16 15 15 15 15 14 13 13 12 12 11
9 8 7 7 7 7 8 8 8 8 8 8 8 8 8 8 8 9 9 9 10 10 10 10 10 10 11 12 13 14 14 15 15 15 16 16 17 18 17 16 17 17 17 17 18 20 20 20 20 19 17 16 16 16 16 15 14 14 13 13 14 15 16 16 16 16 16 16 15 15 14 14 13 12
9 8 8 8 8 7 7 7 8 8 8 8 8 8 8 8 8 9 9 10 10 10 10 10 11 11 11 12 13 15 16 16 17 18 19 19 18 18 18 18 19 20 19 18 17 18 20 23 24 23 21 20 19 17 16 16 15 14 15 14 14 15 15 16 16 16 16 16 16 16 15 15 14 13
9 9 9 9 9 8 8 8 8 8 8 8 8 9 9 9 10 10 11 11 12 12 12 12 12 13 13 14 15 16 18 19 20 21 21 21 20 20 20 19 19 20 21 21 19 19 20 23 24 23 23 24 23 20 19 18 16 15 16 17 16 15 15 16 17 17 17 17 17 17 16 16 15 15
10 10 10 11 11 9 9 10 10 10 10 9 9 10 11 11 12 13 13 13 14 14 14 15 15 16 16 17 17 19 19 20 21 21 22 24 24 24 23 20 17 18 21 23 22 20 20 22 23 23 22 23 23 23 22 20 19 18 19 19 18 17 16 16 17 18 19 18 18 18 17 17 16 16
11 11 11 11 11 12 12 12 11 11 11 11 11 12 13 13 14 14 15 15 16 17 17 17 17 18 18 18 19 19 19 19 20 21 23 25 26 26 26 24 20 19 20 23 23 20 18 20 22 21 20 19 19 21 22 22 22 23 22 22 21 20 19 18 18 18 19 20 19 19 19 18 18 17
13 12 12 11 12 13 14 12 11 11 11 12 13 14 14 15 16 16 17 17 18 19 20 20 20 20 20 20 19 18 18 19 20 21 22 23 24 25 26 27 25 23 23 24 25 22 18 18 19 18 18 18 18 19 21 22 22 22 23 23 24 23 22 20 19 19 19 20 20 20 20 20 19 19
15 14 14 13 14 15 15 13 12 13 13 14 15 16 16 16 17 17 18 18 19 20 21 21 21 20 20 20 19 18 19 20 20 21 23 24 25 25 26 27 27 25 25 26 27 25 21 19 19 18 17 18 18 18 20 21 20 20 22 23 25 25 24 23 21 20 19 19 20 21 21 21 21 20
18 17 17 16 16 17 18 17 16 16 16 16 17 18 18 18 18 19 19 20 20 21 21 22 21 20 20 20 20 20 21 22 22 24 24 25 26 26 26 26 26 25 25 25 26 26 23 20 20 19 17 18 18 18 19 20 20 20 21 22 24 24 24 24 23 22 21 21 20 20 21 21 21 21
20 19 18 17 18 20 21 20 19 18 19 19 19 19 19 19 19 19 19 20 20 20 21 21 21 21 21 22 22 23 24 24 25 25 26 27 28 29 27 26 26 25 24 24 25 25 23 21 21 20 18 19 19 17 18 20 20 21 21 22 22 23 24 25 25 24 24 23 22 21 21 21 22 22
23 23 22 21 22 22 22 21 20 20 21 21 21 21 21 20 20 21 20 20 20 21 22 22 22 22 23 23 25 26 28 28 29 29 29 30 31 32 31 29 27 25 24 24 25 24 22 22 22 21 20 20 20 18 18 20 22 22 22 21 21 22 23 24 25 25 24 24 23 23 22 22 22 23
27 26 24 24 25 24 22 21 21 21 22 22 23 24 23 22 22 22 22 22 22 23 23 23 23 23 23 24 25 27 29 31 33 33 32 32 32 33 33 31 28 25 23 23 24 25 23 22 23 22 21 21 20 19 19 20 22 22 22 21 21 22 22 23 23 24 24 25 25 25 25 25 24 24
30 28 25 25 26 25 24 24 23 23 24 24 25 25 26 25 25 24 23 23 24 23 23 24 24 24 24 25 27 28 30 32 34 34 33 33 32 32 32 31 29 26 23 22 24 24 23 23 23 23 22 21 19 19 20 20 21 23 23 23 22 22 22 22 22 23 24 25 27 27 27 28 27 27
28 27 25 25 26 26 26 27 26 25 25 26 26 27 27 27 26 25 24 24 25 25 25 27 27 28 28 29 30 30 31 32 33 33 32 30 30 31 29 29 28 25 22 22 23 23 23 23 23 24 25 23 19 17 19 20 21 22 23 24 24 24 24 23 23 23 24 25 26 27 28 29 30 29
27 25 25 25 24 25 26 27 28 28 28 27 27 27 27 27 27 26 26 27 27 28 29 30 31 32 32 32 32 32 32 31 30 30 29 28 28 28 28 27 26 24 22 23 25 25 25 24 24 24 25 25 22 19 19 20 21 21 22 23 24 24 25 25 24 24 24 25 26 27 27 29 30 31
27 27 27 25 24 25 25 26 26 27 27 27 27 27 27 27 27 28 28 29 30 31 32 33 32 32 32 31 31 30 30 29 28 27 27 27 27 27 27 26 25 24 23 24 25 27 27 26 25 24 24 26 26 23 21 20 21 22 22 22 23 23 24 25 25 25 24 24 25 26 27 28 29 31
27 28 27 26 26 27 27 26 26 26 27 27 28 28 28 28 28 29 29 30 31 32 32 31 30 29 28 28 28 28 27 27 28 27 27 27 26 26 25 25 25 25 24 24 25 27 27 27 27 26 25 25 26 25 24 22 21 22 21 22 23 23 23 24 25 25 25 25 24 25 26 27 29 30
29 29 28 26 25 25 25 26 26 27 28 28 28 28 28 28 29 29 29 29 29 30 30 30 28 27 26 26 26 27 26 26 25 25 25 24 23 23 22 23 23 23 23 23 24 25 26 26 26 26 25 25 26 26 26 24 23 23 23 23 24 24 24 25 25 25 26 26 26 27 27 27 28 28
29 29 29 26 24 24 26 27 28 28 28 28 28 28 26 26 26 26 26 26 26 27 29 29 28 26 25 24 24 23 23 22 22 21 21 20 20 20 20 21 22 22 21 21 21 22 24 24 24 25 25 25 25 26 26 25 24 24 25 25 25 25 26 26 27 27 26 26 26 27 27 28 28 29
27 27 27 26 26 26 27 28 28 28 27 25 25 24 24 24 24 24 24 24 25 27 27 25 23 22 21 21 21 20 20 20 21 21 21 21 21 21 21 21 21 22 22 22 21 22 23 24 24 24 24 25 25 26 27 27 27 26 26 26 26 26 26 26 26 26 26 25 25 25 26 27 29 29
32 30 29 29 28 27 27 27 26 26 25 25 24 24 24 23 22 21 20 20 20 21 20 19 18 19 20 20 21 21 22 22 23 24 24 24 25 25 25 24 24 24 24 24 24 24 25 26 26 27 27 27 28 28 28 29 28 27 27 28 29 28 27 27 28 27 26 25 25 25 26 26 27 28
34 33 31 30 28 27 27 25 23 21 22 22 22 21 20 20 19 19 18 18 17 17 17 18 19 20 22 23 23 24 25 25 26 27 27 27 28 29 29 29 28 28 28 28 28 29 30 30 31 31 31 31 32 31 31 32 32 31 30 30 31 31 30 29 29 28 27 26 26 26 26 25 25 26
31 31 30 29 28 26 25 22 20 19 18 17 17 18 18 19 20 21 20 20 19 19 20 21 22 23 24 25 26 26 27 28 28 29 29 30 30 31 31 31 31 31 31 30 31 31 32 33 35 35 34 34 35 35 36 36 35 35 34 34 33 34 34 33 33 32 31 32 32 31 29 28 27 27
28 28 28 26 25 24 23 21 21 21 19 18 18 20 21 22 23 23 23 23 22 22 22 23 25 26 26 27 27 28 28 29 29 30 31 32 32 32 32 32 32 32 32 32 32 32 33 34 35 36 36 36 36 37 38 38 38 37 38 38 37 37 37 37 37 37 37 38 38 37 34 32 31 30
19 21 21 21 21 20 20 20 21 21 21 20 21 22 23 24 25 26 25 25 25 24 25 27 28 28 28 28 29 29 29 29 29 30 31 31 32 32 33 33 33 33 33 33 33 33 33 34 34 35 35 36 36 36 37 38 39 38 38 39 39 39 39 39 40 41 41 41 42 42 40 38 35 34
17 18 18 19 20 20 20 22 22 22 23 23 23 24 24 25 28 29 27 26 27 28 28 29 29 29 29 29 30 30 30 29 29 30 30 30 31 31 32 32 33 33 33 34 34 34 35 35 35 36 36 36 37 36 35 37 39 39 38 38 38 38 39 39 40 41 42 42 43 44 44 43 40 38
20 20 21 21 22 22 23 24 24 24 25 26 26 26 26 27 30 32 30 28 29 31 31 30 30 29 30 30 30 30 30 30 30 30 30 31 31 31 32 32 33 33 33 34 34 35 36 36 37 38 39 38 38 38 36 36 39 40 40 39 39 39 39 39 40 40 41 42 43 43 44 45 43 41
23 24 24 24 25 25 26 27 27 27 27 28 28 28 28 29 32 33 31 29 30 32 32 31 30 30 30 30 30 30 30 31 31 31 32 32 33 34 34 34 35 35 35 36 36 37 38 38 39 41 42 42 42 42 39 38 39 41 41 42 42 41 41 42 42 41 41 42 42 43 44 44 44 42
26 27 27 28 28 29 29 29 29 29 29 29 30 30 30 31 33 34 32 31 32 32 32 31 31 31 31 31 31 31 32 32 33 33 34 35 36 36 37 37 38 38 38 38 38 39 40 41 42 43 45 46 46 47 45 43 42 41 40 43 46 46 45 46 47 46 44 44 44 44 45 46 45 44
29 30 30 30 31 31 31 31 31 30 31 31 31 31 31 31 32 32 32 31 31 31 31 31 32 32 32 33 34 34 34 35 35 36 37 37 38 39 40 40 40 41 40 40 40 40 40 41 42 44 46 47 48 49 50 50 48 44 41 42 45 48 48 49 50 50 49 48 47 47 48 48 48 47
31 31 31 30 31 31 32 32 32 31 31 31 31 31 31 30 31 31 31 31 31 31 31 32 32 33 34 34 35 36 36 37 37 38 39 39 40 40 41 42 42 42 43 43 43 42 42 42 43 45 46 47 48 49 51 52 52 50 46 44 44 46 49 51 51 52 52 52 52 52 51 50 50 49
31 30 30 31 31 31 31 31 31 30 30 30 30 31 31 30 30 31 31 32 32 32 33 33 34 34 35 36 36 37 38 38 38 38 39 40 40 41 41 42 42 43 44 44 44 44 44 44 45 46 47 48 49 50 52 53 54 53 51 49 46 45 47 49 51 53 53 53 54 55 55 53 53 52
30 31 32 31 31 31 31 31 31 30 30 30 30 31 31 31 31 32 32 33 33 34 34 35 35 36 36 37 37 38 38 39 39 39 39 39 40 40 40 41 41 42 43 43 44 44 44 44 44 45 46 48 49 51 52 54 54 55 55 54 52 49 48 48 49 51 53 53 53 55 56 56 56 56
30 31 32 31 31 31 31 31 31 31 31 31 31 31 32 32 33 33 34 34 35 36 36 37 37 37 38 38 38 38 39 39 39 39 38 38 39 39 39 39 40 40 41 42 42 42 43 43 44 44 45 46 48 50 52 53 54 55 55 56 55 55 53 51 50 50 52 52 52 53 54 56 58 59
30 30 31 31 31 30 31 32 32 32 32 32 32 33 33 34 34 35 35 36 36 37 37 38 38 38 38 38 38 38 38 38 38 37 37 37 38 38 38 39 39 40 40 41 41 42 42 42 43 44 45 46 46 48 51 52 53 54 55 56 56 56 56 56 55 54 54 53 53 53 53 54 56 58
30 30 31 31 31 31 32 33 33 33 33 33 34 34 35 35 35 36 36 37 37 38 38 38 38 37 37 37 36 36 35 35 35 35 36 36 37 38 39 40 40 41 42 43 43 44 44 45 45 45 46 47 47 48 50 51 52 54 55 56 57 57 57 57 57 57 57 56 55 54 54 54 55 56
Wind_Direction
218 217 220 223 222 225 231 234 239 246 251 256 261 264 268 269 267 272 279 282 286 292 294 300 307 312 318 323 323 319 318 322 326 324 325 328 330 332 332 331 334 338 342 346 348 351 354 357 359 0 1 3 6 10 17 22 21 20 21 23 24 24 22 21 20 19 19 21 27 34 40 43 42 39
226 224 224 225 226 226 229 234 241 250 256 259 262 263 265 271 273 273 276 278 281 287 291 292 296 304 310 312 316 314 310 315 320 319 321 325 325 325 325 326 331 337 343 347 350 354 356 357 358 358 359 2 3 6 10 17 21 20 17 17 18 20 21 20 18 16 13 12 14 19 25 33 38 39
232 232 230 228 228 229 229 234 240 249 257 261 264 267 267 272 276 278 281 283 284 289 291 287 289 298 302 302 307 307 305 312 317 316 319 321 319 318 319 324 333 340 346 349 352 356 357 357 357 357 357 359 1 3 6 10 14 17 16 13 11 12 15 17 16 14 11 7 4 5 8 13 23 30
237 236 236 235 233 233 232 236 242 247 257 264 267 272 273 275 279 282 285 288 288 290 293 292 292 295 298 301 306 307 308 313 314 313 316 318 320 321 321 330 341 344 345 348 352 356 356 356 355 354 355 356 357 360 2 5 8 10 11 10 7 6 7 10 11 11 10 6 1 357 355 355 360 9
241 241 242 242 240 239 237 238 242 246 255 263 265 266 268 272 278 281 285 290 291 293 295 298 298 299 301 304 309 311 313 314 313 316 320 322 328 329 328 335 344 345 345 348 351 351 351 352 352 351 352 352 354 356 358 1 2 3 4 4 4 3 2 3 5 5 5 4 1 356 351 347 342 345
244 247 249 249 246 245 243 242 243 247 252 258 261 265 268 273 279 285 291 295 297 298 300 304 304 304 308 312 315 315 315 315 316 320 325 329 335 337 334 335 339 347 351 348 346 345 345 345 344 346 348 348 350 353 355 356 357 358 358 357 359 359 359 359 0 1 360 358 357 355 351 345 337 333
246 251 255 255 250 247 245 243 243 246 251 259 265 270 276 282 288 293 298 301 304 306 305 307 307 309 313 316 315 316 318 319 321 325 328 332 338 340 338 334 334 344 348 344 341 339 338 339 338 340 343 344 346 348 350 352 353 353 353 352 352 354 355 356 356 359 358 355 352 350 347 344 337 331
249 256 260 257 251 247 246 245 245 247 254 261 267 274 282 289 294 299 304 307 309 310 310 310 311 312 314 315 316 319 321 320 322 326 327 330 335 338 337 336 336 340 340 338 336 335 336 337 335 335 339 341 341 343 344 346 348 349 349 347 347 347 349 350 351 353 355 353 351 347 343 340 336 331
251 258 260 254 248 246 246 247 248 251 258 265 271 279 288 296 300 302 305 307 310 313 314 314 314 315 317 318 319 320 321 322 323 326 329 330 333 335 337 337 334 333 334 333 331 332 333 333 330 332 336 336 335 336 338 339 341 342 344 343 341 341 342 343 345 346 347 349 349 346 342 337 333 329
251 255 255 250 244 241 243 247 250 255 261 268 275 284 291 296 301 302 303 308 312 314 317 320 320 319 319 319 317 317 319 321 322 324 329 331 331 333 337 336 330 329 330 327 324 324 327 329 329 328 329 329 329 329 329 331 335 335 335 337 337 335 335 335 337 339 340 342 343 344 343 338 332 327
252 256 258 255 250 247 246 249 255 260 264 269 275 281 285 290 297 302 307 312 314 315 316 318 316 314 315 315 313 313 314 317 318 320 323 325 326 329 331 331 328 326 324 320 318 320 323 325 324 322 322 322 320 318 317 321 327 328 327 331 332 330 329 328 330 332 332 334 336 337 339 338 334 328
252 256 260 263 262 260 259 259 263 267 269 273 276 279 285 293 300 306 309 310 309 310 308 307 306 306 306 306 305 307 312 315 316 316 317 320 321 322 323 326 326 324 320 318 318 319 319 318 318 318 318 317 315 312 311 314 319 319 319 323 325 324 323 322 322 324 326 327 328 330 332 333 332 329
251 252 257 261 262 264 266 265 267 270 270 272 276 283 290 294 298 300 300 300 300 300 299 299 300 300 300 303 306 310 313 315 316 317 318 320 320 320 320 323 325 323 319 317 318 319 318 315 315 316 315 314 314 313 313 313 315 314 313 316 317 317 317 316 316 317 318 319 320 322 323 324 325 325
252 252 256 259 261 266 269 266 266 269 273 275 279 285 289 290 292 292 293 294 293 293 293 294 295 297 302 307 310 313 313 313 314 316 317 318 320 320 320 322 327 325 319 316 317 320 321 316 314 314 313 311 311 313 314 316 315 312 311 311 311 312 312 311 310 310 311 312 313 314 315 316 317 317
250 250 253 258 264 266 261 259 262 265 271 277 279 281 283 283 285 287 288 290 291 291 293 295 297 300 302 305 308 310 310 310 312 313 315 317 319 320 321 323 328 327 321 316 316 322 327 321 316 317 316 311 308 310 312 313 313 312 312 311 310 311 310 308 306 305 305 306 306 307 308 309 309 310
248 247 249 252 259 263 262 261 264 265 268 273 276 278 280 282 284 287 289 292 294 294 296 297 299 301 302 303 305 306 305 305 308 310 313 315 316 318 320 321 323 324 322 317 314 319 327 322 317 320 321 315 310 309 310 310 310 310 309 308 307 308 307 306 303 302 300 300 301 302 302 303 303 304
248 247 248 248 251 259 267 270 270 270 272 275 277 280 282 284 286 288 290 292 293 294 295 296 298 300 300 300 302 303 303 305 307 309 311 312 313 315 317 317 318 319 319 315 312 314 319 317 313 315 316 312 308 308 308 307 305 304 304 305 305 305 305 305 303 301 298 295 296 297 299 300 300 300
250 248 247 249 252 258 264 267 268 271 273 275 277 281 284 286 288 290 292 292 291 292 293 294 296 298 299 300 303 304 303 304 306 308 309 310 311 314 314 314 315 317 317 313 309 309 314 314 310 309 309 305 303 305 306 305 303 302 303 304 303 303 304 305 304 303 300 296 293 293 294 295 296 297
253 253 251 250 251 253 256 260 265 269 272 274 277 279 282 285 285 285 284 284 286 288 290 292 296 298 298 301 304 304 303 304 305 306 308 310 312 312 311 311 313 316 316 312 307 306 310 314 311 308 307 303 301 303 302 300 298 298 301 302 302 303 305 305 305 304 302 299 297 294 292 293 293 294
252 252 252 250 250 251 253 258 263 266 269 273 276 277 278 279 280 280 279 279 282 285 287 289 292 294 297 299 301 302 304 306 306 307 309 311 312 311 310 309 311 313 315 313 308 306 309 312 309 306 305 301 299 300 298 295 294 295 297 297 297 299 301 303 304 305 304 302 300 298 297 295 294 292
251 250 249 250 253 256 258 260 264 266 268 272 274 276 277 277 277 278 279 279 280 282 285 286 286 289 293 295 296 298 301 302 303 305 306 307 308 309 310 308 307 307 309 309 305 303 306 307 304 301 300 298 297 298 296 294 295 296 296 294 293 295 296 298 300 302 303 303 302 301 301 300 298 295
247 249 251 253 257 261 263 264 265 267 270 272 275 276 277 277 277 276 277 280 281 285 288 288 288 291 293 294 294 296 297 297 297 299 300 302 305 307 309 309 308 306 305 304 302 302 303 304 302 300 298 295 295 295 295 295 296 298 298 297 295 293 292 291 292 293 295 297 298 300 301 301 301 300
251 253 254 256 260 265 268 269 269 269 271 273 274 276 277 278 279 280 281 283 285 289 292 293 293 294 294 293 294 295 295 294 294 295 297 299 302 304 307 308 308 308 306 303 302 301 303 303 302 301 299 296 293 291 292 294 296 297 299 299 297 295 292 290 289 288 288 289 291 294 297 298 299 300
263 263 261 261 263 265 268 271 273 273 273 273 274 276 278 279 280 282 284 286 289 292 293 293 293 293 292 291 292 293 294 294 294 295 297 299 300 302 303 303 303 306 306 302 299 299 301 301 299 299 299 298 296 294 292 293 296 298 298 298 298 298 297 295 293 289 287 287 287 289 290 293 295 297
265 268 268 267 267 267 269 272 275 275 275 276 277 278 278 278 279 281 284 287 290 292 292 292 291 290 289 289 290 292 294 296 297 298 299 300 300 301 302 302 302 303 302 300 298 299 300 299 298 298 297 297 297 297 295 296 298 299 299 299 299 299 299 299 297 294 292 289 287 286 286 288 290 292
267 270 269 269 269 270 270 271 272 274 276 278 279 279 278 278 279 282 285 287 288 289 289 290 289 289 289 288 289 291 293 295 298 300 300 301 302 303 304 303 303 304 304 304 303 302 302 302 302 301 300 299 300 301 300 300 299 298 298 298 298 299 300 299 299 299 298 295 292 289 288 289 290 291
269 271 270 269 270 272 274 274 275 274 274 275 277 277 278 279 280 282 285 286 287 287 287 287 288 289 290 290 290 291 293 295 297 299 301 303 306 306 306 305 305 307 310 310 309 306 305 306 305 304 305 307 305 303 303 304 302 299 298 298 298 299 300 300 300 299 298 298 298 297 295 294 293 292
265 268 268 267 267 269 272 274 276 277 276 275 275 276 277 279 280 281 282 282 283 284 283 283 285 288 290 291 292 294 296 298 299 300 302 304 304 304 305 306 308 311 312 313 311 308 307 307 305 306 309 310 307 305 306 307 306 303 301 300 301 301 301 300 299 299 300 302 302 298 296 295 294 291
261 265 266 265 263 264 266 269 273 275 275 274 274 275 277 279 281 283 283 281 280 280 280 281 285 289 291 293 294 295 297 298 298 298 299 300 300 300 300 302 304 305 307 308 308 305 305 304 304 306 307 306 305 306 307 307 308 308 307 305 304 303 303 302 300 300 301 301 298 297 298 299 297 294
258 261 264 264 264 265 268 272 274 274 272 271 271 274 278 281 284 285 285 283 281 282 283 286 290 292 291 290 291 293 295 296 296 297 298 298 297 297 297 298 298 298 298 299 298 297 297 297 298 300 301 300 301 302 302 303 305 307 307 307 306 305 305 305 304 304 303 300 299 301 304 302 300 299
259 260 264 266 267 268 271 276 277 273 270 269 271 274 276 279 280 280 281 283 285 287 289 290 288 286 284 285 287 289 291 292 292 294 295 295 294 295 296 297 296 295 295 294 293 293 293 292 292 294 294 295 296 296 296 297 299 301 302 302 303 303 304 304 305 307 306 303 302 304 305 304 301 300
263 264 266 268 270 272 274 275 273 270 269 269 271 273 273 273 274 275 278 281 284 288 288 285 283 282 283 284 285 286 288 289 289 290 291 292 292 293 293 294 294 293 293 293 292 292 292 292 292 293 293 293 293 294 294 294 295 297 297 296 297 298 299 300 301 302 302 300 300 301 302 302 301 300
263 264 265 266 268 268 268 267 266 266 266 267 267 268 269 271 272 274 278 283 288 290 288 284 284 285 286 286 286 286 287 288 288 289 290 291 291 291 291 292 292 292 292 292 291 291 291 291 291 292 293 293 293 293 294 295 295 296 295 295 295 295 295 295 296 296 296 296 297 297 297 297 297 297
255 255 256 258 259 259 258 259 261 264 267 268 268 270 273 275 275 275 280 287 290 290 287 287 290 291 290 289 289 290 291 291 290 290 291 291 292 292 292 292 293 293 293 293 293 293 292 292 292 292 292 292 292 292 294 294 295 294 294 294 294 294 294 295 294 293 293 293 294 294 294 293 293 294
250 250 252 254 256 258 259 261 263 266 269 272 273 275 277 277 277 281 288 292 290 289 289 291 293 293 291 291 292 293 293 293 292 293 293 293 293 293 293 293 294 294 295 295 295 295 294 294 294 293 292 292 292 292 293 294 294 294 294 294 295 294 294 294 292 291 291 291 291 291 291 291 290 290
256 257 257 258 260 263 264 265 267 270 272 274 276 277 277 276 279 286 292 292 290 290 291 292 292 291 290 291 292 292 292 293 293 293 294 294 294 294 294 294 294 295 295 296 296 296 296 297 296 295 295 294 293 292 292 293 293 294 295 296 295 294 294 292 290 290 290 291 291 291 290 290 290 289
259 261 262 262 264 265 266 267 270 273 274 275 276 277 278 278 280 285 288 288 287 288 290 290 290 289 289 290 291 291 291 292 293 294 295 295 296 296 296 296 296 296 296 296 297 297 297 297 298 297 297 296 295 294 293 292 292 293 296 297 296 294 294 293 291 291 290 290 291 291 290 290 290 290
261 262 263 264 265 266 267 269 271 273 273 274 275 276 277 277 279 282 285 284 284 286 287 288 288 289 290 291 291 292 293 293 294 295 296 296 296 296 296 296 296 296 296 296 297 297 297 298 298 297 297 296 296 296 295 293 291 291 293 294 294 294 293 293 292 292 291 290 290 290 289 289 290 290
262 263 264 266 267 268 270 271 271 272 272 272 273 274 275 276 278 281 282 282 283 284 285 286 287 289 291 292 293 294 295 295 296 297 296 296 296 297 297 297 297 297 297 297 296 296 297 296 296 295 295 295 296 296 296 294 293 293 292 292 292 292 292 292 292 291 291 290 289 288 287 288 288 289
263 265 267 268 268 269 270 270 271 272 272 273 274 274 275 276 277 279 280 281 283 284 285 286 288 289 290 291 292 293 294 295 295 296 296 296 296 297 297 297 297 297 297 297 297 297 297 296 295 295 295 295 295 295 295 295 295 295 294 292 291 291 292 292 292 292 292 291 291 289 288 287 287 287
267 268 267 267 267 268 269 270 271 272 272 273 274 275 275 276 277 278 280 282 283 284 285 286 287 288 289 291 292 292 292 293 293 293 293 294 294 294 295 295 295 295 295 296 296 296 295 295 295 295 295 295 295 295 294 295 295 295 295 294 292 290 290 290 290 291 291 291 291 291 290 290 288 286
267 267 266 266 267 268 270 270 271 271 272 273 274 276 277 278 279 280 281 283 284 285 286 287 288 289 290 291 291 291 291 291 291 292 292 292 292 292 293 293 294 294 294 295 295 295 295 294 294 293 293 293 294 294 294 294 295 295 295 295 294 292 290 288 288 288 289 289 289 289 289 290 289 287
265 265 266 267 267 268 269 270 271 273 274 275 276 278 279 280 280 282 283 284 285 286 287 288 289 290 291 291 291 291 291 292 292 293 294 294 294 294 294 295 295 295 295 295 296 296 296 296 296 295 295 295 295 295 294 294 295 295 295 295 295 294 292 290 289 287 287 287 286 286 287 287 286 286
264 265 266 267 268 270 270 271 272 273 275 275 276 277 278 278 280 281 282 283 284 285 285 286 287 288 289 289 289 289 290 292 293 294 294 295 296 296 297 297 298 298 298 298 299 299 299 299 299 299 298 297 297 296 296 296 296 295 295 295 295 294 294 293 291 289 287 286 286 286 285 284 283 283
266 267 268 269 270 271 271 271 272 273 273 274 274 275 276 277 278 278 279 280 281 281 282 283 284 285 285 285 287 288 290 291 292 294 295 296 297 298 299 299 300 300 300 301 301 301 301 301 301 301 300 300 299 298 297 297 297 297 296 296 296 295 295 295 293 292 289 288 287 287 286 285 283 282
Height
3260 3261 3261 3261 3261 3262 3262 3262 3263 3262 3262 3263 3263 3263 3263 3263 3263 3263 3263 3264 3264 3264 3264 3263 3262 3261 3260 3260 3260 3258 3258 3257 3257 3256 3255 3255 3254 3253 3253 3252 3251 3250 3248 3247 3246 3244 3242 3241 3240 3239 3237 3236 3235 3234 3233 3232 3231 3229 3228 3227 3226 3225 3223 3223 3222 3222 3221 3220 3220 3219 3219 3218 3217 3216
3260 3260 3260 3260 3261 3261 3261 3261 3262 3262 3262 3262 3262 3262 3262 3262 3262 3262 3262 3263 3263 3263 3264 3263 3262 3261 3260 3259 3259 3259 3257 3256 3256 3255 3255 3255 3253 3253 3252 3251 3250 3249 3248 3247 3245 3244 3243 3242 3240 3239 3238 3236 3235 3234 3232 3232 3231 3230 3229 3228 3227 3226 3224 3223 3222 3222 3221 3221 3220 3219 3219 3218 3218 3217
3259 3259 3259 3259 3260 3260 3260 3261 3261 3261 3261 3261 3261 3261 3261 3261 3261 3261 3261 3261 3262 3261 3262 3262 3261 3261 3260 3259 3258 3258 3256 3255 3255 3254 3254 3253 3253 3252 3251 3250 3249 3248 3247 3246 3245 3244 3243 3242 3241 3239 3238 3237 3235 3234 3233 3231 3231 3230 3229 3228 3227 3226 3225 3224 3223 3222 3221 3221 3220 3220 3219 3218 3218 3217
3258 3258 3258 3259 3259 3259 3260 3260 3260 3260 3261 3261 3261 3261 3260 3260 3260 3260 3260 3260 3260 3260 3260 3260 3260 3259 3259 3258 3257 3256 3255 3255 3254 3254 3253 3252 3251 3250 3249 3248 3248 3248 3247 3246 3245 3244 3243 3242 3241 3239 3238 3237 3236 3234 3233 3232 3230 3229 3229 3228 3227 3226 3225 3224 3223 3222 3221 3220 3220 3219 3219 3218 3218 3217
3257 3257 3258 3258 3258 3259 3259 3259 3259 3260 3260 3260 3260 3260 3260 3260 3259 3259 3259 3259 3259 3258 3258 3258 3258 3258 3257 3257 3256 3255 3255 3254 3254 3253 3252 3251 3250 3249 3248 3247 3248 3247 3246 3245 3244 3243 3242 3242 3241 3239 3238 3237 3236 3234 3233 3232 3231 3229 3228 3228 3227 3226 3225 3224 3223 3222 3221 3220 3220 3219 3219 3218 3218 3217
3256 3257 3257 3257 3258 3258 3258 3258 3259 3259 3259 3259 3259 3259 3259 3258 3258 3258 3258 3258 3258 3258 3257 3257 3257 3256 3256 3256 3255 3254 3254 3253 3253 3252 3251 3251 3250 3249 3248 3247 3246 3246 3246 3244 3243 3243 3242 3241 3240 3239 3238 3236 3235 3234 3233 3232 3231 3229 3228 3227 3226 3225 3225 3224 3223 3222 3221 3221 3220 3219 3218 3218 3217 3217
3255 3256 3256 3256 3256 3257 3257 3257 3258 3258 3258 3258 3258 3258 3258 3257 3258 3258 3257 3257 3257 3257 3256 3256 3256 3255 3255 3255 3254 3254 3253 3252 3252 3251 3251 3250 3249 3249 3248 3246 3246 3245 3245 3244 3243 3242 3241 3240 3239 3238 3237 3236 3235 3234 3233 3232 3231 3230 3228 3227 3226 3225 3224 3223 3223 3222 3221 3220 3220 3219 3218 3217 3216 3216
3255 3255 3255 3255 3255 3256 3256 3256 3257 3257 3257 3257 3257 3257 3257 3257 3257 3257 3257 3256 3256 3256 3255 3255 3255 3254 3254 3253 3253 3252 3252 3251 3251 3250 3250 3249 3249 3249 3247 3246 3245 3244 3243 3242 3242 3241 3240 3239 3238 3237 3236 3235 3234 3233 3232 3231 3230 3229 3228 3227 3225 3224 3224 3223 3222 3221 3221 3220 3219 3219 3218 3217 3216 3215
3254 3254 3254 3254 3254 3255 3255 3255 3256 3256 3256 3257 3257 3257 3257 3257 3257 3256 3256 3255 3255 3255 3254 3254 3254 3253 3253 3252 3252 3251 3251 3250 3250 3249 3249 3248 3248 3248 3247 3246 3245 3243 3242 3241 3240 3239 3239 3238 3237 3236 3235 3234 3233 3232 3231 3231 3230 3229 3228 3227 3225 3224 3223 3222 3221 3221 3220 3219 3219 3218 3217 3217 3216 3215
3253 3253 3253 3253 3253 3253 3254 3254 3255 3255 3256 3256 3256 3256 3256 3256 3255 3255 3255 3255 3254 3254 3254 3253 3253 3252 3252 3251 3251 3250 3250 3249 3248 3248 3248 3247 3247 3246 3246 3245 3245 3243 3242 3241 3239 3238 3237 3236 3235 3234 3234 3233 3232 3231 3230 3229 3229 3228 3227 3226 3225 3223 3222 3221 3220 3220 3219 3218 3218 3217 3216 3216 3215 3215
3252 3252 3252 3252 3252 3253 3253 3254 3254 3254 3255 3255 3255 3255 3255 3255 3255 3254 3254 3254 3254 3253 3253 3252 3252 3251 3251 3250 3250 3249 3248 3248 3247 3247 3246 3246 3246 3245 3245 3245 3244 3243 3242 3241 3239 3237 3236 3234 3234 3233 3232 3232 3231 3230 3229 3228 3227 3227 3226 3225 3224 3223 3221 3220 3219 3218 3217 3217 3216 3216 3215 3215 3214 3214
3251 3251 3252 3252 3252 3252 3252 3253 3253 3253 3253 3254 3254 3254 3254 3254 3254 3254 3253 3253 3253 3252 3252 3252 3251 3250 3250 3249 3249 3248 3247 3247 3246 3245 3245 3245 3245 3244 3244 3243 3242 3241 3240 3239 3238 3237 3235 3233 3232 3231 3230 3230 3229 3228 3227 3226 3226 3225 3224 3223 3222 3222 3220 3219 3218 3217 3216 3215 3215 3214 3214 3213 3213 3212
3250 3250 3251 3251 3251 3251 3252 3252 3252 3252 3252 3253 3253 3253 3253 3253 3253 3252 3252 3252 3252 3251 3251 3251 3250 3249 3249 3248 3248 3247 3246 3246 3245 3244 3243 3243 3242 3242 3242 3242 3241 3239 3237 3236 3236 3236 3235 3233 3231 3230 3228 3227 3226 3226 3225 3225 3224 3224 3223 3222 3221 3220 3219 3218 3217 3216 3215 3214 3213 3213 3212 3212 3211 3210
3248 3249 3249 3249 3249 3250 3250 3250 3251 3251 3251 3252 3252 3252 3251 3251 3251 3251 3251 3250 3250 3250 3249 3249 3249 3248 3248 3248 3247 3246 3246 3245 3244 3243 3242 3241 3241 3240 3239 3240 3240 3238 3236 3234 3234 3234 3233 3231 3230 3229 3227 3226 3224 3223 3222 3222 3222 3222 3221 3220 3219 3219 3218 3217 3216 3215 3214 3213 3212 3211 3210 3210 3209 3209
3247 3248 3248 3248 3248 3248 3248 3249 3249 3250 3250 3250 3250 3250 3250 3250 3249 3249 3249 3249 3248 3248 3248 3247 3247 3247 3247 3246 3246 3245 3244 3243 3243 3242 3241 3240 3239 3238 3237 3237 3237 3237 3235 3233 3231 3232 3232 3230 3228 3227 3226 3225 3224 3222 3221 3220 3219 3219 3218 3217 3217 3216 3216 3215 3215 3213 3212 3211 3210 3209 3209 3208 3208 3207
3246 3246 3247 3247 3247 3246 3246 3247 3247 3248 3248 3249 3249 3249 3249 3248 3248 3248 3248 3247 3247 3246 3246 3246 3246 3246 3245 3245 3244 3244 3243 3242 3241 3241 3240 3239 3238 3237 3236 3235 3234 3235 3234 3231 3229 3229 3230 3228 3226 3225 3225 3224 3223 3221 3220 3219 3218 3217 3216 3215 3214 3214 3214 3213 3213 3212 3211 3210 3208 3208 3207 3206 3205 3205
3244 3244 3245 3245 3246 3245 3244 3245 3245 3246 3246 3247 3247 3247 3247 3247 3247 3247 3246 3246 3245 3245 3244 3244 3244 3244 3243 3243 3242 3242 3241 3240 3240 3239 3238 3237 3236 3235 3234 3233 3232 3232 3231 3229 3226 3226 3226 3226 3224 3223 3223 3222 3221 3220 3219 3218 3217 3216 3215 3214 3212 3211 3211 3210 3210 3210 3209 3208 3207 3206 3205 3204 3203 3203
3242 3242 3242 3243 3244 3244 3243 3243 3243 3244 3244 3244 3245 3245 3245 3245 3245 3245 3244 3244 3243 3243 3242 3242 3242 3242 3241 3240 3240 3240 3239 3238 3238 3237 3236 3235 3234 3233 3232 3231 3230 3230 3229 3227 3224 3223 3223 3223 3221 3221 3221 3220 3219 3218 3217 3216 3215 3214 3213 3212 3211 3209 3208 3208 3207 3207 3206 3206 3205 3204 3203 3202 3201 3200
3239 3240 3240 3241 3241 3241 3240 3241 3242 3242 3242 3242 3242 3242 3242 3242 3242 3242 3242 3241 3240 3240 3240 3239 3239 3239 3239 3238 3238 3237 3236 3236 3235 3234 3233 3232 3231 3230 3229 3229 3228 3227 3226 3225 3222 3220 3220 3220 3218 3218 3218 3217 3216 3216 3215 3214 3213 3212 3211 3210 3209 3207 3206 3205 3205 3204 3204 3203 3203 3202 3201 3200 3199 3198
3237 3236 3236 3237 3237 3237 3238 3239 3239 3240 3240 3239 3240 3240 3240 3240 3240 3240 3240 3239 3238 3238 3238 3237 3237 3236 3236 3236 3235 3234 3233 3232 3231 3231 3230 3229 3228 3226 3226 3225 3225 3225 3224 3222 3220 3218 3218 3218 3216 3215 3215 3214 3213 3213 3213 3211 3210 3209 3209 3208 3206 3205 3204 3203 3202 3201 3200 3200 3199 3199 3198 3197 3197 3196
3232 3232 3232 3233 3234 3235 3236 3237 3237 3237 3237 3237 3237 3237 3237 3237 3238 3238 3237 3236 3236 3236 3236 3236 3235 3234 3234 3234 3233 3232 3231 3230 3228 3227 3227 3226 3225 3224 3223 3222 3222 3221 3221 3220 3218 3216 3216 3216 3214 3212 3212 3211 3210 3210 3210 3208 3207 3206 3205 3204 3203 3202 3201 3200 3199 3198 3198 3197 3196 3195 3195 3194 3193 3193
3226 3228 3229 3230 3232 3233 3234 3234 3235 3235 3235 3234 3234 3234 3234 3234 3234 3234 3234 3234 3234 3234 3233 3233 3232 3232 3232 3231 3231 3230 3229 3227 3225 3224 3223 3223 3222 3221 3220 3219 3218 3218 3218 3216 3215 3214 3213 3213 3211 3209 3208 3208 3208 3207 3206 3205 3204 3203 3202 3201 3200 3199 3198 3197 3196 3196 3195 3194 3193 3192 3191 3190 3189 3189
3224 3226 3227 3228 3229 3231 3231 3232 3232 3232 3232 3232 3232 3231 3231 3231 3231 3231 3232 3231 3231 3231 3230 3229 3229 3229 3228 3228 3227 3227 3226 3224 3223 3221 3221 3220 3219 3218 3217 3217 3215 3214 3214 3213 3212 3211 3210 3210 3209 3207 3204 3204 3205 3205 3203 3202 3201 3200 3199 3197 3196 3196 3195 3194 3194 3193 3192 3191 3191 3190 3189 3187 3186 3186
3225 3225 3225 3227 3228 3228 3228 3229 3229 3229 3229 3229 3229 3229 3229 3229 3229 3229 3229 3228 3228 3227 3227 3226 3226 3225 3224 3224 3223 3223 3222 3221 3219 3218 3218 3217 3216 3215 3214 3214 3213 3212 3211 3210 3209 3207 3207 3207 3206 3205 3202 3200 3200 3201 3201 3200 3199 3198 3196 3195 3193 3193 3192 3191 3190 3190 3189 3188 3188 3187 3186 3185 3184 3183
3223 3223 3223 3224 3225 3225 3226 3226 3226 3226 3226 3226 3226 3226 3226 3226 3226 3226 3226 3226 3225 3224 3224 3223 3223 3222 3221 3220 3219 3219 3218 3216 3215 3215 3215 3214 3213 3212 3211 3211 3209 3209 3208 3207 3206 3204 3203 3203 3202 3202 3201 3198 3197 3197 3197 3197 3196 3195 3193 3192 3191 3190 3189 3187 3186 3186 3186 3185 3185 3184 3182 3182 3181 3180
3219 3220 3219 3221 3222 3223 3223 3223 3223 3223 3223 3223 3223 3223 3222 3222 3222 3222 3222 3222 3222 3221 3221 3220 3220 3219 3218 3217 3216 3215 3215 3213 3212 3212 3211 3211 3210 3209 3208 3207 3206 3205 3205 3204 3203 3201 3200 3200 3199 3198 3198 3197 3196 3195 3194 3194 3193 3192 3191 3190 3188 3187 3186 3184 3183 3182 3182 3181 3181 3180 3179 3178 3178 3177
3215 3216 3216 3218 3220 3220 3220 3220 3220 3220 3220 3220 3219 3219 3219 3219 3219 3219 3219 3219 3218 3218 3218 3217 3216 3216 3215 3214 3213 3212 3212 3211 3210 3209 3208 3208 3207 3206 3205 3204 3203 3202 3202 3202 3200 3198 3197 3196 3196 3195 3195 3195 3194 3193 3192 3191 3190 3189 3188 3187 3186 3184 3183 3181 3180 3179 3178 3178 3178 3177 3176 3175 3175 3174
3213 3213 3214 3215 3216 3216 3216 3217 3217 3216 3216 3216 3216 3216 3216 3216 3216 3216 3215 3215 3215 3214 3214 3214 3213 3212 3212 3211 3210 3210 3209 3208 3208 3207 3206 3206 3205 3204 3203 3202 3201 3200 3200 3199 3198 3196 3195 3194 3193 3193 3192 3192 3191 3190 3188 3187 3186 3185 3184 3184 3183 3181 3180 3178 3177 3176 3176 3177 3176 3174 3173 3171 3170 3169
3210 3211 3211 3212 3212 3213 3213 3213 3213 3213 3213 3213 3213 3213 3213 3213 3213 3212 3211 3211 3211 3210 3210 3210 3210 3209 3209 3208 3207 3207 3207 3206 3205 3204 3204 3203 3203 3202 3201 3201 3200 3199 3198 3197 3196 3194 3193 3191 3190 3190 3190 3189 3188 3187 3185 3184 3183 3182 3181 3180 3179 3178 3176 3175 3174 3174 3174 3173 3172 3170 3169 3168 3167 3165
3207 3208 3208 3209 3209 3210 3210 3210 3210 3210 3210 3210 3210 3210 3210 3209 3209 3208 3208 3208 3207 3207 3206 3206 3207 3206 3206 3205 3205 3204 3203 3203 3202 3201 3201 3200 3199 3199 3198 3198 3197 3197 3196 3195 3193 3192 3190 3188 3187 3186 3186 3185 3184 3183 3182 3180 3179 3179 3178 3176 3174 3174 3173 3171 3170 3169 3170 3169 3168 3167 3166 3165 3163 3161
3203 3204 3205 3205 3206 3206 3206 3207 3206 3206 3206 3206 3206 3206 3206 3206 3205 3205 3205 3205 3204 3204 3204 3204 3204 3203 3203 3202 3201 3201 3200 3200 3199 3198 3197 3197 3196 3195 3194 3194 3194 3193 3192 3191 3190 3188 3187 3185 3184 3183 3182 3181 3180 3179 3178 3176 3175 3175 3174 3173 3171 3170 3169 3168 3166 3165 3165 3164 3164 3164 3163 3162 3160 3159
3200 3201 3201 3202 3202 3203 3203 3203 3203 3203 3203 3203 3203 3203 3203 3202 3202 3202 3202 3201 3201 3201 3201 3201 3200 3200 3199 3199 3198 3197 3197 3196 3195 3194 3193 3192 3192 3191 3190 3189 3189 3188 3188 3187 3186 3185 3183 3182 3180 3178 3178 3176 3175 3174 3173 3172 3171 3170 3169 3169 3168 3166 3165 3164 3163 3162 3161 3159 3159 3159 3158 3157 3156 3155
3197 3197 3198 3198 3199 3199 3200 3200 3200 3200 3200 3200 3201 3200 3200 3199 3199 3198 3198 3198 3198 3198 3197 3196 3196 3195 3195 3194 3194 3193 3193 3192 3191 3190 3189 3188 3187 3186 3185 3184 3184 3183 3182 3182 3182 3180 3179 3177 3176 3174 3173 3172 3171 3169 3168 3167 3166 3166 3164 3163 3163 3162 3161 3160 3158 3157 3156 3154 3153 3153 3152 3152 3152 3150
3194 3194 3195 3195 3195 3196 3196 3197 3197 3197 3197 3197 3197 3197 3196 3195 3194 3193 3194 3195 3194 3194 3193 3191 3191 3190 3190 3189 3189 3188 3188 3187 3186 3185 3184 3183 3183 3182 3181 3180 3179 3178 3177 3177 3176 3175 3174 3173 3171 3170 3169 3167 3166 3166 3164 3162 3161 3161 3159 3158 3157 3156 3155 3155 3153 3152 3151 3149 3147 3146 3145 3146 3147 3146
3192 3192 3192 3192 3193 3193 3193 3193 3193 3193 3193 3193 3193 3193 3193 3191 3188 3188 3191 3191 3190 3188 3188 3187 3186 3186 3185 3184 3184 3183 3183 3182 3181 3181 3180 3179 3178 3178 3177 3175 3175 3174 3172 3171 3171 3170 3168 3167 3166 3164 3163 3162 3161 3161 3161 3159 3156 3155 3155 3154 3153 3151 3150 3149 3148 3146 3145 3144 3143 3140 3138 3138 3140 3140
3189 3189 3189 3189 3189 3190 3190 3189 3189 3190 3189 3189 3189 3189 3188 3186 3184 3184 3186 3186 3184 3183 3183 3183 3182 3181 3180 3180 3180 3179 3178 3178 3177 3176 3176 3175 3174 3173 3172 3171 3170 3169 3168 3167 3166 3165 3163 3162 3160 3158 3156 3156 3154 3155 3156 3155 3151 3149 3149 3149 3147 3146 3145 3143 3142 3141 3140 3138 3137 3135 3133 3131 3132 3133
3186 3186 3186 3186 3186 3186 3186 3185 3185 3186 3185 3185 3184 3184 3184 3182 3180 3180 3181 3182 3180 3179 3179 3178 3178 3177 3176 3176 3175 3175 3174 3173 3173 3172 3171 3170 3169 3168 3167 3166 3165 3164 3163 3162 3161 3160 3158 3157 3155 3152 3150 3149 3148 3147 3149 3149 3148 3146 3145 3143 3141 3140 3139 3137 3135 3135 3135 3133 3131 3130 3127 3125 3125 3126
3182 3182 3182 3182 3181 3181 3181 3181 3181 3182 3181 3181 3180 3180 3180 3178 3177 3176 3177 3177 3176 3175 3174 3174 3173 3172 3172 3171 3170 3170 3169 3169 3168 3167 3166 3165 3164 3163 3162 3161 3160 3159 3158 3157 3157 3155 3154 3151 3150 3147 3144 3142 3141 3140 3140 3141 3141 3143 3142 3139 3134 3133 3133 3131 3128 3128 3128 3127 3126 3124 3121 3119 3119 3119
3177 3177 3177 3177 3177 3177 3177 3177 3177 3177 3177 3176 3176 3176 3175 3174 3173 3172 3172 3172 3172 3171 3171 3170 3169 3168 3167 3166 3165 3165 3164 3163 3163 3162 3161 3159 3158 3157 3156 3155 3154 3153 3152 3151 3151 3150 3149 3147 3144 3142 3139 3137 3135 3133 3131 3130 3131 3135 3138 3136 3131 3127 3126 3124 3122 3120 3119 3119 3118 3116 3115 3114 3112 3112
3172 3172 3173 3172 3172 3172 3172 3172 3172 3172 3172 3171 3171 3171 3170 3170 3169 3169 3168 3167 3167 3167 3166 3166 3165 3164 3163 3162 3161 3160 3160 3159 3158 3157 3155 3154 3153 3152 3150 3149 3148 3146 3145 3144 3144 3143 3142 3141 3139 3136 3134 3132 3130 3127 3124 3122 3121 3124 3127 3129 3127 3124 3120 3117 3115 3113 3112 3111 3109 3107 3107 3106 3106 3105
3168 3168 3168 3168 3167 3167 3167 3167 3167 3167 3167 3167 3166 3166 3166 3166 3165 3164 3164 3163 3163 3162 3162 3161 3160 3160 3159 3158 3157 3156 3155 3154 3153 3152 3151 3150 3149 3147 3145 3144 3142 3141 3139 3138 3137 3136 3135 3134 3133 3131 3128 3126 3123 3121 3118 3115 3114 3114 3115 3117 3119 3119 3116 3112 3109 3106 3105 3104 3101 3098 3097 3097 3096 3096
3164 3163 3162 3163 3163 3163 3162 3163 3163 3162 3162 3162 3162 3161 3161 3161 3160 3160 3159 3158 3158 3157 3157 3156 3155 3155 3154 3153 3152 3151 3149 3149 3148 3147 3146 3145 3143 3142 3140 3139 3137 3135 3134 3132 3131 3130 3129 3128 3127 3125 3123 3120 3118 3114 3112 3109 3107 3105 3105 3105 3107 3108 3109 3108 3105 3101 3098 3097 3095 3092 3089 3087 3085 3084
3159 3158 3158 3158 3158 3158 3158 3158 3158 3158 3158 3158 3157 3157 3157 3156 3156 3155 3154 3154 3153 3152 3151 3151 3150 3149 3149 3148 3147 3145 3144 3143 3142 3141 3140 3138 3137 3135 3134 3133 3131 3130 3128 3126 3125 3124 3122 3121 3120 3118 3117 3115 3112 3108 3105 3103 3101 3098 3097 3096 3095 3096 3097 3097 3097 3096 3093 3091 3089 3087 3084 3081 3077 3074
3154 3154 3154 3154 3154 3154 3154 3153 3153 3154 3154 3153 3153 3153 3152 3152 3151 3150 3150 3149 3148 3148 3147 3146 3145 3145 3144 3143 3141 3140 3139 3138 3136 3135 3134 3132 3131 3129 3128 3126 3125 3123 3121 3119 3118 3117 3115 3114 3113 3111 3110 3108 3106 3103 3099 3097 3095 3092 3090 3088 3087 3086 3085 3085 3085 3085 3084 3083 3082 3080 3078 3075 3071 3067
3149 3149 3149 3149 3150 3150 3149 3149 3149 3150 3149 3149 3149 3148 3148 3147 3147 3146 3145 3145 3144 3143 3142 3142 3141 3140 3139 3137 3136 3135 3134 3133 3131 3130 3128 3127 3125 3124 3122 3120 3118 3117 3115 3113 3111 3109 3108 3107 3105 3104 3102 3101 3099 3096 3093 3090 3088 3085 3083 3081 3079 3077 3076 3075 3073 3072 3071 3072 3073 3071 3068 3066 3064 3061